VK2BNC-13 Weather Reports


Display with metric or nautical units.
time (UTC)temp
F
wind
direction
speed
MPH
gust
MPH
rain 1hr
in
rain 24hr
in
rain mn
in
humidity
%
barometer
mb
20260505053304 75 205 1.0 3.0 0.00 0.01 0.00 42
20260505051800 74 36 2.0 5.0 0.00 0.01 0.00 43
20260505050259 75 284 1.0 3.0 0.00 0.01 0.00 43
20260505040259 73 74 1.0 6.0 0.00 0.01 0.00 45
20260505034757 73 165 1.0 8.0 0.00 0.01 0.00 44
20260505033254 73 164 4.0 8.0 0.00 0.01 0.00 45
20260505031752 72 190 4.0 8.0 0.00 0.01 0.00 45
20260505030252 73 356 2.0 9.0 0.00 0.01 0.00 45
20260505024752 73 221 3.0 9.0 0.00 0.01 0.00 45
20260505023252 73 287 2.0 6.0 0.00 0.01 0.00 46
20260505021752 72 287 2.0 6.0 0.00 0.01 0.00 47
20260505020252 71 205 2.0 7.0 0.00 0.03 0.00 50
20260505014752 71 329 3.0 7.0 0.00 0.06 0.00 50
20260505013252 70 280 3.0 9.0 0.00 0.07 0.00 53
20260505011752 69 264 3.0 9.0 0.00 0.09 0.00 54
20260505010252 69 276 3.0 10.0 0.00 0.10 0.00 56
20260505004752 68 265 3.0 10.0 0.00 0.13 0.00 57
20260505003250 67 232 4.0 10.0 0.00 0.20 0.00 57
20260505001750 67 257 4.0 10.0 0.00 0.20 0.00 58
20260505000250 66 268 4.0 9.0 0.00 0.21 0.00 57
20260504234750 66 285 2.0 7.0 0.00 0.23 0.00 62
20260504233248 65 256 3.0 7.0 0.00 0.24 0.00 65
20260504231746 64 311 3.0 7.0 0.00 0.24 0.00 65
20260504230245 64 319 1.0 5.0 0.00 0.25 0.00 67
20260504224745 62 313 1.0 4.0 0.00 0.28 0.00 74
20260504223246 61 286 1.0 3.0 0.00 0.28 0.00 78
20260504221746 60 320 0.0 3.0 0.00 0.28 0.00 81
20260504220246 58 48 2.0 3.0 0.00 0.28 0.00 87
20260504214744 56 27 2.0 3.0 0.00 0.28 0.00 89
20260504213242 55 65 1.0 3.0 0.00 0.28 0.00 88
20260504211742 54 40 0.0 2.0 0.00 0.28 0.00 90
20260504210238 52 71 1.0 2.0 0.00 0.28 0.00 92
20260504204737 51 320 0.0 1.0 0.00 0.28 0.00 92
20260504203238 53 192 0.0 1.0 0.00 0.28 0.00 91
20260504201735 54 192 0.0 1.0 0.00 0.28 0.00 88
20260504200235 55 192 0.0 3.0 0.00 0.29 0.00 85
20260504194735 56 258 1.0 4.0 0.00 0.29 0.00 81
20260504193236 56 267 2.0 4.0 0.00 0.29 0.00 85
20260504191735 56 277 1.0 5.0 0.00 0.29 0.00 85
20260504190236 57 277 2.0 5.0 0.00 0.29 0.00 85
20260504184735 55 284 1.0 3.0 0.00 0.29 0.00 95
20260504183232 55 288 0.0 1.0 0.00 0.29 0.00 95
20260504181729 56 278 0.0 1.0 0.00 0.29 0.00 95
20260504180228 56 293 0.0 0.0 0.00 0.29 0.00 96
20260504174727 57 14 0.0 1.0 0.00 0.29 0.00 96
20260504173225 58 40 0.0 1.0 0.00 0.29 0.00 96
20260504171724 59 329 0.0 3.0 0.00 0.29 0.00 96
20260504170222 60 318 0.0 1.0 0.00 0.29 0.00 96
20260504160219 61 337 0.0 0.0 0.00 0.29 0.00 95
20260504150215 62 288 0.0 1.0 0.00 0.29 0.00 94
20260504140209 63 212 0.0 2.0 0.01 0.29 0.00 92
20260504130202 63 235 1.0 5.0 0.00 0.28 0.28 89
20260504120156 64 190 0.0 2.0 0.00 0.28 0.28 86
20260504110151 66 72 2.0 5.0 0.00 0.28 0.28 82
20260504100150 67 50 2.0 5.0 0.00 0.28 0.28 83
20260504081648 66 60 1.0 2.0 0.00 0.28 0.28 88
20260504080148 66 37 1.0 3.0 0.00 0.28 0.28 88
20260504070142 67 22 2.0 5.0 0.00 0.28 0.28 86
20260504060142 68 45 4.0 8.0 0.00 0.28 0.28 84